Temperature
20 20 19 19 19 19 19 19 19 18 18 18 18 18 17 17 17 17 16 16 16 16 16 16 16 16 16 16 16 16 16 16 16 16 16 16 15 15 15 15 15 15 15
20 20 19 19 19 19 19 19 18 18 18 18 18 18 17 17 17 17 16 16 16 16 16 16 16 16 16 16 16 16 16 16 16 16 16 15 15 15 14 15 15 15 15
20 20 19 19 19 19 18 18 18 18 18 18 18 18 17 17 17 17 16 16 16 16 16 16 16 15 15 15 15 16 16 16 15 16 16 15 15 15 14 15 15 15 15
20 20 19 19 19 18 18 18 18 18 18 18 18 18 17 17 17 16 16 16 16 16 16 16 15 15 15 15 15 15 15 15 15 15 16 16 15 15 14 15 15 15 14
20 20 19 19 19 18 18 18 18 18 18 18 18 17 17 17 17 16 16 16 16 16 16 16 15 15 16 15 15 15 15 15 15 15 15 15 15 15 15 15 15 15 14
20 19 19 19 18 18 18 18 18 18 18 17 17 17 17 17 17 17 16 16 16 15 15 15 15 15 15 15 15 15 15 14 15 15 15 15 14 14 14 14 14 14 14
20 19 19 19 18 18 18 18 18 18 18 17 17 17 17 17 17 17 16 16 16 15 15 15 15 15 15 15 15 15 15 15 15 14 14 14 14 14 14 14 14 14 14
19 19 19 19 18 18 18 18 18 18 17 17 17 17 17 17 17 16 16 16 15 15 15 15 15 15 15 15 15 14 14 14 14 14 14 14 13 13 13 13 13 13 13
19 19 19 19 19 18 18 18 18 18 17 17 17 17 16 17 17 16 16 15 15 15 15 15 15 15 15 15 14 14 14 14 14 14 14 14 14 14 13 13 13 13 14
19 19 19 19 18 18 18 18 18 18 17 17 17 17 16 16 16 16 16 15 15 15 15 15 15 15 15 15 14 14 14 14 14 14 14 14 13 13 13 13 13 13 13
19 19 19 18 18 18 18 18 18 17 17 17 17 17 16 16 16 16 16 15 15 14 15 14 15 15 14 14 14 13 13 13 13 13 13 13 13 13 13 13 12 12 13
18 18 18 18 18 18 18 18 17 17 17 16 16 16 16 16 16 16 16 15 15 14 14 14 14 14 14 14 13 13 13 13 13 13 13 13 13 13 12 12 12 12 12
18 18 18 18 18 17 17 17 17 17 16 16 16 16 16 16 16 16 16 15 15 14 14 14 14 14 14 13 13 13 13 13 13 13 13 13 12 12 12 12 12 12 12
18 17 17 17 17 17 17 17 16 16 16 16 16 16 16 15 15 15 15 15 15 14 14 14 14 13 13 13 13 13 13 12 12 13 13 12 12 12 12 12 12 12 12
17 17 17 17 17 17 17 17 16 16 16 16 16 16 16 15 15 16 15 15 14 14 14 13 13 13 13 13 13 13 12 12 12 12 12 12 12 12 12 12 11 12 12
17 16 17 17 16 16 16 16 16 16 16 16 16 15 15 15 15 15 15 15 14 14 13 13 13 13 13 13 13 12 12 12 12 12 12 12 12 12 12 12 11 11 11
16 16 16 16 16 16 16 16 16 15 15 15 15 15 15 15 15 15 14 14 14 14 13 13 13 13 13 13 13 13 12 12 12 12 12 12 12 12 12 12 11 11 11
16 16 16 16 16 16 16 16 16 15 15 15 15 15 15 14 14 14 14 14 14 14 14 13 13 13 13 13 13 12 12 12 12 11 11 11 11 11 11 11 11 11 11
15 15 15 15 15 16 15 15 15 15 15 15 15 15 14 14 14 14 14 13 13 13 13 13 13 13 12 12 12 12 12 12 11 11 11 11 11 11 11 11 11 11 11
15 15 15 15 15 15 15 15 15 15 15 14 14 14 14 14 13 13 13 13 13 13 13 13 13 12 12 12 12 12 12 11 11 11 11 11 11 11 11 11 11 11 11
15 15 14 14 15 15 15 14 14 14 14 14 14 14 14 13 13 13 13 13 13 13 12 12 12 12 12 12 12 11 11 11 11 11 11 11 11 11 11 11 10 10 10
14 14 14 14 14 14 14 14 14 14 14 14 14 13 13 13 13 13 13 13 12 12 12 12 12 12 12 11 11 11 11 11 11 11 11 10 10 10 10 10 10 10 10
14 14 14 14 14 14 13 14 14 13 13 13 13 13 13 13 12 12 12 12 12 12 12 12 11 11 11 11 11 11 11 11 10 10 10 10 10 10 10 10 10 10 10
13 14 14 14 13 13 13 13 13 13 13 13 13 13 12 12 12 12 12 12 12 12 11 11 11 11 11 10 10 10 10 10 10 10 10 9 10 10 10 10 9 9 9
13 13 13 13 13 13 13 13 13 13 12 12 12 12 12 12 12 11 11 11 11 11 11 11 11 11 10 10 10 10 10 10 10 10 9 9 9 9 9 9 9 9 9
13 13 13 13 13 13 12 12 12 12 12 12 11 11 11 11 11 11 11 11 11 11 10 10 10 10 10 10 10 10 10 10 10 9 9 9 9 9 9 9 9 9 9
Wind_Speed
12 11 10 10 10 9 8 7 7 6 6 7 7 6 5 5 5 5 5 4 5 4 4 4 4 4 4 4 4 4 4 5 5 4 3 2 3 5 4 5 6 5 5
12 11 11 10 9 9 9 8 7 7 7 7 7 7 6 6 6 6 6 5 5 5 5 4 4 4 4 4 4 4 4 4 6 5 4 4 3 4 4 5 5 5 4
11 11 11 11 10 10 8 8 7 7 7 7 8 7 7 6 6 6 6 6 6 6 5 5 5 5 5 4 5 5 5 5 5 6 5 3 4 3 4 5 4 4 6
10 11 10 10 10 9 8 8 8 8 8 8 8 7 7 7 7 6 6 6 6 6 5 6 6 5 6 6 5 5 5 5 5 6 6 4 4 3 4 5 4 4 4
9 9 9 9 9 9 8 8 8 8 9 8 8 7 7 7 6 7 7 7 6 6 6 6 6 4 4 5 6 5 5 6 6 5 6 5 4 3 4 4 5 5 4
9 9 8 8 9 9 9 9 9 8 8 8 8 8 8 7 5 6 7 7 6 6 6 6 6 6 5 6 6 6 7 7 7 6 6 6 5 5 4 5 5 5 4
8 7 8 8 8 9 9 9 9 9 9 8 8 7 7 6 6 7 7 7 7 6 6 6 6 4 5 5 6 9 8 8 8 8 8 8 6 5 6 6 5 6 5
7 7 8 8 8 8 8 9 9 8 8 7 7 8 7 7 8 8 8 8 7 7 6 6 6 5 5 5 6 7 7 7 8 8 7 8 7 5 6 6 6 6 6
8 8 8 8 8 8 8 8 8 7 7 7 7 8 8 7 8 9 9 7 7 7 7 6 6 6 3 5 7 7 7 6 6 7 6 6 5 5 6 6 5 6 6
8 7 7 8 8 8 8 8 7 7 7 7 7 8 8 7 8 9 9 7 6 6 6 6 6 5 4 5 7 7 7 6 6 6 7 8 8 8 8 7 6 6 6
7 7 7 7 7 7 6 7 7 7 7 7 7 7 7 7 8 9 9 7 6 6 5 5 4 5 6 6 8 7 6 6 6 6 6 6 5 5 5 5 5 6 6
6 6 6 7 7 6 7 7 7 7 8 8 7 7 7 7 7 8 10 10 7 7 6 5 3 5 7 8 7 5 6 7 6 5 5 4 4 4 4 4 4 6 5
6 6 6 6 6 6 7 7 7 7 7 7 7 7 6 6 7 9 11 10 9 7 5 2 3 6 7 8 9 8 7 6 5 5 4 4 4 4 4 4 5 5 6
5 5 5 6 6 6 6 6 7 7 7 7 7 6 6 6 5 5 6 6 7 7 5 4 6 7 7 5 5 6 6 5 4 4 4 4 4 4 4 4 5 5 5
4 4 5 6 6 6 6 5 7 7 6 7 6 6 6 6 5 5 5 5 5 5 4 4 4 5 5 5 5 5 5 5 5 5 5 4 5 5 4 4 5 5 5
4 5 5 5 5 6 6 6 4 4 4 5 4 5 4 2 5 6 6 5 4 4 5 5 5 5 5 5 5 5 5 5 5 5 5 5 5 5 5 5 4 5 5
5 5 5 5 5 6 6 6 6 5 5 7 7 7 6 4 6 6 6 5 5 6 6 6 5 5 5 5 5 4 4 4 5 5 5 5 5 5 5 5 5 5 6
6 5 6 5 5 6 6 6 6 6 6 6 7 8 8 7 8 7 6 5 5 6 6 6 6 5 5 5 4 4 4 4 4 5 5 5 5 6 5 6 5 5 5
6 5 5 5 6 6 6 6 6 7 7 6 5 6 7 7 8 8 8 6 6 6 6 6 5 5 5 4 4 4 4 3 3 4 4 4 5 5 5 5 5 4 6
6 6 6 6 6 6 6 6 6 7 7 6 6 5 6 6 5 6 7 7 6 6 6 6 5 5 4 4 4 4 4 3 4 4 4 4 4 5 5 6 5 5 5
6 6 7 7 6 6 6 6 6 7 7 6 7 6 7 7 7 7 7 7 7 7 6 6 5 5 4 4 4 5 5 4 4 3 3 4 5 5 5 5 5 6 5
6 6 6 6 6 6 6 6 6 6 7 7 6 6 9 8 7 7 7 6 7 6 6 6 6 5 4 4 4 5 5 4 4 4 4 5 5 5 5 5 5 5 5
7 7 7 6 6 6 7 7 7 7 7 7 6 6 7 8 7 6 6 6 6 5 5 5 5 5 4 5 5 5 5 4 4 4 4 5 5 5 4 4 5 5 5
7 7 7 6 6 6 6 6 6 6 6 6 6 6 7 7 7 7 7 6 5 5 5 5 5 6 6 5 4 5 4 4 4 4 5 5 5 5 5 4 5 6 5
6 6 6 6 5 5 5 6 5 5 5 5 5 5 6 6 6 6 6 6 6 5 6 6 5 5 7 7 6 4 2 2 1 4 5 5 5 5 5 6 5 5 5
6 6 6 5 5 4 5 5 5 5 4 5 5 5 5 5 5 5 5 5 5 5 5 5 5 6 6 6 5 4 5 4 3 4 5 5 5 5 5 5 6 6 6
Wind_Direction
198 197 198 198 197 197 201 203 204 205 196 196 195 190 193 200 204 212 225 217 228 235 241 241 249 271 270 266 263 264 264 267 271 279 278 269 270 283 288 275 258 238 217
197 198 199 200 198 198 199 201 201 201 202 198 198 196 201 203 208 215 224 223 227 233 240 245 249 245 250 268 269 265 263 265 267 272 277 271 259 263 272 273 273 262 256
194 197 199 198 199 201 200 199 199 201 204 202 201 201 205 209 212 218 222 228 231 236 239 242 246 249 254 260 266 267 265 260 261 265 268 269 268 267 270 271 272 271 266
194 195 196 198 199 200 198 199 200 203 204 203 204 204 208 210 211 216 219 225 231 236 240 243 246 251 258 263 258 261 270 272 263 263 267 266 262 259 266 274 273 250 267
193 196 194 195 197 198 200 203 203 206 206 203 204 205 211 211 213 215 222 225 230 238 241 243 245 248 272 275 277 274 268 265 265 263 266 269 271 277 273 277 281 277 258
194 196 190 191 195 197 201 205 205 205 206 204 204 206 212 216 186 196 223 227 232 237 244 248 243 229 228 230 257 277 280 268 270 273 269 274 277 278 282 280 280 279 280
190 193 192 194 198 202 203 202 203 202 200 203 207 210 213 206 178 198 219 230 231 236 244 250 254 243 234 248 237 232 243 247 257 268 273 277 278 279 278 271 272 278 285
187 192 198 198 200 204 204 203 204 201 201 202 208 214 216 205 185 200 214 227 233 233 236 241 248 251 250 255 255 250 250 242 237 246 263 273 280 284 271 269 272 261 260
188 192 196 198 199 201 204 203 203 201 203 204 207 213 217 208 186 195 208 221 223 228 231 232 236 240 236 251 251 252 252 250 229 228 252 265 281 275 270 267 265 266 269
190 192 196 199 200 202 205 205 202 202 205 207 207 212 215 215 187 190 206 224 223 226 227 228 223 236 225 234 246 254 257 261 262 243 235 236 240 231 224 246 261 267 276
190 189 191 198 203 203 203 202 200 203 205 210 209 213 216 215 192 191 205 225 231 231 232 234 222 193 219 233 246 252 263 272 263 260 254 246 240 238 230 231 253 267 273
190 192 194 197 205 199 199 201 203 203 202 206 209 214 212 208 205 196 203 225 246 236 240 245 224 186 214 225 232 241 250 259 260 259 259 259 257 252 247 245 244 256 265
189 194 197 197 201 201 200 201 203 205 211 210 211 214 214 209 193 187 199 214 229 236 243 240 213 209 220 225 223 222 230 242 247 250 255 261 266 266 257 239 233 234 243
194 196 199 200 202 198 206 210 213 213 216 215 215 219 218 207 205 200 208 212 215 229 238 206 200 217 233 237 215 216 232 242 248 253 255 259 260 253 250 255 255 247 250
204 206 210 210 208 207 210 215 219 220 223 225 223 219 220 221 205 194 212 214 218 221 224 223 226 223 230 230 227 222 226 225 230 246 255 254 253 253 252 253 257 258 256
215 220 223 223 216 216 213 214 205 227 194 205 243 257 230 187 155 174 202 223 219 197 216 229 232 233 236 236 233 224 222 228 235 241 245 249 254 256 257 253 252 252 255
225 227 235 234 229 225 223 225 221 207 192 198 207 223 236 197 173 187 198 203 204 191 217 231 235 239 242 242 241 239 237 234 238 242 244 248 251 253 254 252 248 250 255
232 223 232 238 239 235 232 230 229 225 219 217 205 202 201 195 193 191 183 186 204 207 229 234 236 239 241 246 246 244 245 241 239 244 248 250 251 252 252 252 247 249 255
241 240 236 241 241 240 238 233 230 227 228 225 216 187 186 188 189 192 189 213 224 227 232 236 236 237 241 241 245 246 248 250 252 254 252 252 255 256 258 258 254 236 255
238 231 238 243 241 239 238 235 232 228 228 225 222 216 184 189 204 199 207 223 231 236 239 238 237 240 241 239 237 239 241 241 242 250 259 259 258 258 255 254 256 252 252
245 234 220 239 242 240 238 236 235 231 228 227 228 207 187 211 216 215 216 221 226 233 236 239 237 234 234 229 233 233 236 241 243 251 257 257 258 258 257 258 252 252 257
247 248 241 239 240 238 239 240 239 234 231 233 230 195 180 222 230 223 222 224 227 231 230 230 232 231 230 233 233 238 239 241 245 247 251 256 258 260 260 260 259 259 258
245 244 242 238 236 228 230 236 236 234 232 232 230 219 208 223 232 231 229 231 230 228 225 222 225 226 223 228 229 234 241 243 246 252 256 259 260 261 261 261 262 263 260
245 246 245 241 237 235 235 235 235 234 232 231 229 227 224 225 232 233 232 231 227 227 225 221 219 215 218 229 233 237 241 246 246 243 250 256 259 262 262 261 260 260 259
248 247 246 243 239 237 239 240 237 233 230 230 232 236 238 237 236 233 230 228 226 226 223 221 218 218 217 216 224 229 149 126 240 258 248 251 254 261 264 263 260 260 258
253 250 247 244 240 240 240 240 239 236 236 236 234 232 233 233 233 232 229 225 223 220 218 218 215 218 218 214 208 178 147 155 190 248 257 251 251 254 261 262 261 257 258
Height
1522 1525 1527 1529 1531 1533 1535 1536 1538 1539 1540 1541 1543 1544 1544 1545 1546 1546 1547 1547 1547 1548 1547 1548 1547 1547 1548 1549 1548 1548 1548 1548 1547 1546 1546 1544 1542 1542 1541 1540 1539 1538 1538
1519 1521 1523 1526 1528 1530 1532 1533 1535 1536 1538 1539 1540 1541 1542 1543 1543 1544 1545 1545 1545 1545 1545 1545 1545 1546 1545 1546 1546 1546 1545 1545 1545 1543 1543 1542 1540 1539 1538 1537 1537 1537 1536
1516 1518 1521 1523 1525 1527 1529 1530 1532 1533 1535 1536 1537 1538 1538 1540 1541 1542 1542 1543 1543 1543 1543 1543 1543 1543 1543 1543 1543 1543 1543 1543 1542 1541 1540 1539 1538 1537 1536 1535 1534 1533 1533
1513 1515 1517 1519 1521 1523 1525 1527 1528 1530 1531 1532 1534 1535 1536 1537 1538 1539 1539 1540 1540 1540 1540 1540 1540 1541 1541 1541 1541 1540 1540 1540 1539 1539 1538 1537 1536 1534 1533 1533 1532 1531 1530
1510 1512 1513 1516 1518 1520 1521 1523 1525 1526 1528 1529 1530 1531 1532 1534 1535 1536 1536 1537 1537 1537 1537 1537 1537 1537 1537 1537 1538 1538 1537 1537 1537 1536 1535 1535 1534 1532 1531 1530 1529 1528 1527
1507 1509 1510 1512 1514 1516 1518 1520 1521 1523 1524 1526 1527 1528 1529 1531 1532 1532 1533 1534 1534 1534 1534 1534 1534 1533 1533 1533 1533 1533 1533 1533 1533 1533 1532 1532 1530 1530 1528 1527 1527 1525 1524
1504 1506 1507 1509 1511 1513 1515 1517 1518 1519 1521 1522 1523 1524 1525 1527 1528 1529 1529 1530 1530 1530 1530 1530 1531 1530 1530 1529 1529 1529 1529 1528 1528 1528 1529 1528 1527 1526 1525 1524 1523 1522 1521
1501 1503 1505 1506 1508 1510 1512 1513 1514 1516 1517 1518 1520 1521 1522 1523 1524 1525 1525 1526 1526 1526 1526 1526 1526 1525 1526 1525 1524 1524 1524 1524 1524 1524 1524 1524 1523 1522 1521 1520 1520 1519 1518
1498 1500 1501 1503 1505 1507 1508 1510 1511 1512 1514 1515 1516 1517 1518 1519 1520 1521 1521 1521 1521 1522 1522 1522 1521 1521 1520 1520 1520 1520 1520 1519 1519 1519 1519 1519 1518 1517 1517 1517 1517 1517 1516
1495 1497 1499 1500 1502 1503 1505 1506 1508 1509 1510 1511 1513 1514 1515 1515 1516 1516 1517 1517 1517 1518 1518 1517 1517 1516 1516 1516 1516 1516 1516 1516 1516 1515 1515 1514 1514 1514 1513 1513 1513 1513 1513
1493 1494 1495 1497 1499 1500 1502 1503 1504 1505 1507 1508 1509 1510 1511 1511 1512 1512 1513 1513 1514 1514 1514 1513 1513 1512 1512 1512 1512 1512 1512 1512 1512 1512 1511 1511 1511 1510 1510 1509 1509 1509 1509
1490 1491 1492 1493 1496 1497 1498 1499 1501 1502 1503 1504 1505 1506 1507 1508 1508 1508 1509 1509 1509 1510 1509 1510 1509 1508 1508 1508 1508 1508 1508 1508 1508 1508 1508 1508 1507 1507 1507 1506 1505 1505 1505
1487 1488 1489 1490 1492 1493 1495 1496 1497 1498 1500 1501 1502 1502 1503 1504 1504 1504 1505 1505 1505 1505 1505 1505 1505 1504 1504 1504 1504 1504 1504 1504 1505 1505 1505 1505 1504 1504 1503 1502 1502 1501 1501
1484 1485 1486 1487 1488 1489 1491 1492 1493 1494 1495 1496 1497 1498 1499 1500 1500 1500 1500 1501 1501 1502 1501 1501 1501 1500 1500 1500 1500 1500 1500 1501 1501 1501 1501 1501 1501 1500 1500 1499 1499 1499 1498
1481 1482 1483 1484 1485 1486 1487 1488 1489 1490 1491 1492 1493 1494 1495 1496 1496 1496 1496 1497 1497 1497 1497 1497 1497 1497 1496 1496 1496 1496 1497 1497 1497 1497 1497 1497 1497 1497 1496 1496 1496 1496 1495
1478 1478 1480 1481 1481 1482 1483 1484 1484 1486 1486 1487 1488 1490 1490 1491 1491 1492 1493 1493 1493 1493 1493 1493 1493 1493 1493 1493 1493 1493 1493 1493 1493 1494 1494 1494 1493 1493 1493 1492 1492 1492 1491
1474 1475 1476 1477 1477 1478 1478 1479 1480 1481 1482 1482 1483 1485 1486 1486 1487 1488 1489 1489 1490 1490 1490 1490 1490 1490 1489 1489 1489 1489 1490 1490 1490 1490 1490 1490 1490 1489 1489 1489 1488 1488 1488
1470 1471 1471 1472 1473 1474 1474 1475 1476 1477 1477 1478 1478 1480 1481 1482 1482 1483 1484 1485 1486 1486 1486 1486 1486 1486 1486 1486 1486 1486 1486 1486 1487 1487 1487 1487 1486 1486 1485 1485 1485 1484 1484
1466 1467 1468 1469 1469 1470 1470 1470 1471 1472 1473 1473 1474 1474 1475 1477 1477 1478 1479 1481 1481 1482 1482 1482 1482 1482 1482 1482 1482 1483 1483 1483 1483 1484 1483 1483 1483 1483 1482 1482 1481 1481 1481
1462 1463 1463 1464 1465 1465 1466 1466 1467 1467 1468 1469 1469 1470 1470 1471 1472 1473 1473 1475 1476 1477 1478 1478 1478 1478 1478 1478 1479 1479 1479 1479 1480 1480 1480 1480 1480 1479 1479 1478 1478 1477 1477
1458 1458 1459 1459 1460 1460 1461 1461 1462 1462 1463 1464 1465 1465 1465 1467 1468 1469 1469 1470 1470 1472 1473 1474 1474 1474 1474 1474 1475 1475 1476 1476 1476 1476 1476 1476 1476 1476 1475 1475 1474 1474 1474
1454 1454 1455 1455 1455 1455 1456 1457 1457 1458 1458 1459 1460 1461 1461 1462 1464 1465 1465 1466 1467 1467 1468 1469 1469 1469 1469 1470 1471 1472 1472 1472 1472 1472 1473 1473 1472 1472 1472 1471 1471 1470 1470
1449 1450 1450 1450 1451 1450 1451 1452 1453 1453 1454 1455 1456 1456 1456 1457 1459 1460 1460 1461 1462 1463 1463 1463 1464 1465 1465 1466 1467 1468 1468 1468 1468 1469 1469 1469 1469 1469 1468 1468 1467 1467 1467
1445 1445 1446 1446 1446 1446 1446 1447 1448 1448 1449 1450 1451 1452 1452 1453 1454 1455 1455 1456 1456 1457 1458 1458 1459 1460 1460 1461 1463 1464 1464 1464 1465 1465 1465 1465 1465 1465 1465 1464 1464 1464 1463
1440 1440 1441 1441 1442 1442 1442 1443 1443 1444 1444 1445 1446 1447 1447 1448 1449 1449 1450 1451 1451 1452 1453 1454 1455 1456 1456 1457 1458 1459 1459 1460 1460 1461 1461 1462 1462 1461 1461 1461 1461 1461 1460
1436 1436 1437 1437 1437 1438 1438 1439 1439 1439 1440 1441 1441 1442 1443 1443 1444 1445 1445 1446 1447 1447 1448 1450 1451 1451 1452 1453 1454 1454 1455 1455 1456 1456 1457 1458 1458 1458 1458 1458 1458 1457 1457